Temp
18 17 17 17 17 16 16 16 16 17 17 17 16 16 16 16 16 16 17 17 17 18 17 16 16 16 17 17 16 16 16 16 16
17 18 17 17 16 16 16 15 16 16 16 15 15 15 16 16 16 16 16 17 17 17 18 17 17 16 16 17 17 17 17 16 16
17 17 17 17 16 16 15 16 15 15 16 15 15 15 16 16 16 16 16 17 17 17 17 17 17 17 17 17 17 17 16 16 16
17 17 17 17 16 16 16 15 15 15 15 16 16 16 16 16 16 16 16 17 17 17 18 17 16 16 16 17 17 17 17 16 16
18 18 18 17 17 17 17 17 16 16 17 17 17 17 17 17 17 17 18 18 18 17 18 17 17 16 16 16 17 17 17 16 16
18 18 17 17 18 18 18 18 18 17 18 18 18 18 18 18 18 18 18 18 18 17 18 18 17 17 16 16 16 16 16 17 17
18 18 18 18 18 18 18 18 18 18 18 18 18 18 18 18 18 18 19 19 18 18 18 18 17 17 16 16 16 16 16 16 16
19 19 19 19 19 19 18 18 18 18 18 18 19 19 19 19 19 19 19 19 18 18 18 18 17 17 16 16 16 16 16 16 16
20 19 19 19 19 19 19 18 18 18 19 19 18 18 18 18 18 19 19 19 19 18 18 18 17 17 17 17 16 16 16 16 16
19 19 19 19 19 19 19 18 18 18 18 18 18 18 18 18 17 17 18 18 18 18 18 18 18 18 17 17 17 17 16 16 16
19 19 19 18 18 18 18 17 17 17 17 17 17 17 17 17 17 17 17 17 17 17 17 17 18 18 18 17 17 17 16 16 16
18 18 18 17 17 17 17 17 17 17 17 17 17 16 16 16 16 16 16 16 16 16 16 17 16 17 16 16 16 17 17 16 16
17 17 17 16 16 17 17 16 16 15 15 14 15 15 15 16 15 14 15 15 15 15 15 15 16 16 15 15 16 16 16 15 15
17 16 16 16 16 15 15 14 14 13 13 13 13 14 15 14 13 14 14 15 14 14 14 14 14 14 14 14 14 14 15 15 14
16 15 15 15 14 14 13 13 13 12 11 12 12 13 14 13 13 13 14 14 13 12 13 13 13 13 13 12 12 13 13 13 14
15 14 14 13 13 12 12 11 11 11 10 11 10 12 13 12 13 13 12 13 11 12 12 12 12 11 11 12 11 11 12 12 13
14 13 12 12 12 11 10 10 9 10 9 8 8 6 9 11 10 10 11 10 10 11 11 10 10 10 9 10 9 10 10 11 11
12 12 11 11 10 10 9 9 8 8 8 8 8 5 5 7 9 9 10 9 9 9 8 8 8 8 8 8 8 8 8 9 10
11 10 10 9 9 9 8 8 8 7 7 7 8 7 6 4 5 8 7 7 7 7 7 7 7 7 7 7 7 7 8 8 8
10 9 9 8 8 8 8 7 7 7 7 6 6 6 6 6 4 4 5 6 6 6 6 6 6 6 6 6 6 6 6 6 7
Height
793 794 794 794 793 792 792 792 791 791 792 792 791 791 791 791 791 790 790 789 788 789 789 789 789 790 790 790 790 790 790 790 790
791 792 793 793 793 793 792 792 792 792 792 791 791 790 790 789 789 788 788 787 787 788 788 788 787 787 787 788 788 787 787 787 788
791 791 792 793 793 793 793 792 792 791 791 790 790 789 788 787 787 786 785 784 784 785 786 786 785 785 785 785 785 784 784 784 784
790 790 791 791 792 792 792 791 791 790 790 789 788 787 786 785 784 783 783 782 782 782 783 783 783 782 782 782 782 781 781 781 781
789 789 790 791 791 791 790 789 789 788 788 787 785 785 784 783 782 781 781 781 779 780 780 780 780 780 779 778 778 778 778 777 777
788 788 789 789 789 788 788 788 787 787 785 784 784 784 782 781 781 780 779 778 776 776 776 776 776 776 776 775 775 774 774 774 773
786 786 787 787 787 786 786 786 786 785 784 783 782 781 780 779 778 777 776 774 774 773 772 772 771 771 770 769 769 769 769 769 769
785 786 787 787 786 786 785 784 784 783 781 780 779 778 777 776 774 773 772 771 771 770 768 767 766 765 765 764 763 763 763 763 762
785 786 785 785 784 784 783 782 781 781 780 778 777 776 774 773 771 770 769 767 766 766 764 762 762 760 759 757 757 756 754 754 754
783 784 784 784 783 782 781 780 780 779 777 776 775 773 771 770 769 767 766 764 762 762 760 759 757 754 752 751 750 749 748 747 746
783 783 783 782 781 781 779 778 777 776 775 773 772 770 768 767 766 764 762 760 759 757 755 754 751 749 748 746 745 744 742 741 739
782 783 782 782 780 778 777 776 775 774 772 770 769 768 766 764 762 760 758 756 755 753 751 749 746 745 744 742 740 739 737 735 733
781 782 781 781 779 778 777 776 774 773 771 769 767 765 762 761 759 757 755 754 752 750 748 746 744 742 740 739 737 735 732 730 728
781 782 782 781 780 779 778 776 775 772 770 767 764 761 758 756 755 754 752 750 749 747 745 743 741 739 737 735 734 731 729 726 723
783 783 783 782 780 779 778 776 774 772 769 765 762 758 754 753 753 752 750 748 746 744 742 739 737 735 732 731 729 727 725 721 718
783 783 783 782 780 780 778 776 774 771 768 763 759 754 752 751 750 749 747 746 744 741 738 736 734 731 728 725 722 721 719 716 713
784 783 783 782 781 779 778 776 774 772 771 768 762 758 752 748 750 747 746 744 741 739 737 736 733 730 727 724 721 717 714 710 707
784 783 783 782 781 779 778 777 776 773 771 769 769 767 764 755 746 746 744 742 741 739 737 734 731 727 724 721 717 714 711 708 704
784 783 783 782 781 780 779 778 776 774 771 769 769 770 769 763 750 745 744 741 739 736 733 730 727 724 721 717 714 710 707 703 699
785 784 783 782 781 780 779 777 775 773 772 771 767 765 762 760 757 744 741 739 736 732 729 726 722 720 716 712 709 706 702 698 695
Wind_Speed
7 4 1 2 4 3 1 1 1 1 3 5 5 6 9 12 14 14 12 10 9 9 10 9 9 10 11 10 10 11 11 12 11
8 4 3 2 3 3 2 0 2 4 4 5 5 6 7 9 12 13 12 11 9 12 12 13 12 13 13 14 16 16 15 14 14
7 4 3 4 3 4 4 4 5 6 8 9 9 10 11 11 13 14 14 13 12 13 14 15 15 15 16 17 17 17 17 17 16
4 5 5 6 6 6 7 8 7 8 9 9 11 13 14 15 17 17 16 12 14 14 16 16 17 17 18 18 19 20 19 19 18
6 5 5 4 6 8 9 9 9 9 10 12 12 13 14 16 18 16 14 13 14 15 16 17 17 18 19 20 21 23 21 22 21
7 6 6 6 9 10 10 10 9 9 10 10 10 12 15 17 17 17 16 15 15 15 18 20 19 20 21 22 23 24 25 25 25
7 7 5 7 6 7 7 6 9 10 11 11 11 13 16 16 18 19 19 18 18 20 21 23 23 21 23 23 24 26 27 27 29
2 4 5 5 7 8 8 9 10 13 14 15 17 19 19 21 21 21 20 21 22 22 23 25 25 25 24 25 26 27 28 29 31
4 5 4 5 7 8 10 11 12 13 14 15 15 16 14 15 18 20 21 23 23 24 25 26 27 28 26 26 26 29 32 33 33
1 2 2 6 7 9 10 8 9 12 14 15 16 18 18 18 19 19 19 19 20 22 23 25 27 27 27 27 27 29 28 30 35
2 4 4 5 4 5 8 11 11 11 12 13 14 18 19 21 22 21 21 22 24 23 24 25 25 24 26 25 25 27 28 28 30
1 2 4 8 8 7 6 7 10 12 13 15 15 16 17 17 19 21 22 21 19 18 17 19 19 21 23 24 26 26 30 31 31
5 4 9 10 9 8 9 12 13 15 16 17 17 19 22 22 22 21 16 14 20 22 22 21 20 18 16 17 20 23 27 31 32
7 7 8 7 7 9 11 12 15 17 19 20 20 20 23 20 16 10 19 22 23 24 20 21 19 19 22 23 23 23 25 26 26
8 8 8 9 8 11 13 14 15 14 18 20 16 22 13 12 11 21 27 20 28 20 24 29 28 29 30 26 25 27 30 31 32
10 9 10 10 10 11 13 14 17 16 23 11 21 11 7 17 17 34 17 28 22 24 30 27 31 37 37 36 34 29 28 29 29
12 11 11 11 10 12 13 15 15 10 19 12 8 4 7 7 37 15 27 19 24 32 24 37 33 32 34 29 27 32 33 36 34
12 12 11 11 11 13 13 14 15 14 16 19 5 4 3 13 6 29 16 24 32 21 36 29 30 31 26 31 33 33 31 28 28
11 12 11 11 12 12 12 13 14 15 16 19 9 11 14 3 6 6 29 20 26 29 29 30 30 24 32 30 35 31 28 29 32
11 10 9 10 11 12 12 13 16 16 13 16 20 21 20 16 4 11 9 25 25 29 28 30 30 31 30 37 32 27 32 35 37
Wind_Direction
174 177 117 17 12 24 58 175 110 272 276 280 278 270 271 277 283 286 283 277 264 266 254 253 257 249 250 251 253 251 257 263 262
181 217 245 307 337 356 0 312 296 301 301 299 297 294 297 297 289 289 283 274 282 269 262 262 263 256 254 256 254 258 260 260 259
181 229 254 287 305 309 291 290 283 288 286 281 283 289 293 294 292 293 290 272 272 272 268 266 263 261 260 260 260 261 260 259 257
200 219 270 282 287 292 289 286 289 289 289 285 279 285 292 295 296 298 298 289 271 274 270 268 267 266 264 264 262 262 261 260 258
238 260 274 283 295 300 301 297 292 293 291 292 295 294 293 296 304 305 297 295 288 277 274 274 273 272 270 266 264 261 266 256 254
229 238 257 282 308 304 305 306 311 313 318 320 317 308 301 297 296 296 295 294 288 277 278 273 274 275 274 272 270 268 267 264 260
250 229 287 308 327 330 331 331 330 322 321 317 317 312 309 305 297 296 301 296 282 284 280 275 273 274 272 271 271 269 268 266 263
267 281 278 283 320 340 331 323 320 324 318 313 313 306 298 296 293 293 296 293 287 286 286 277 272 272 274 277 273 269 268 265 263
260 251 273 296 315 313 318 321 317 318 318 317 317 316 321 322 320 313 305 294 296 293 288 285 282 272 271 275 276 272 265 263 262
166 121 340 311 307 308 307 319 324 315 315 318 321 324 325 324 321 319 320 319 317 309 303 296 291 286 281 278 280 282 281 273 262
296 321 316 323 327 12 1 356 347 351 350 345 337 329 323 318 319 325 323 323 319 315 314 304 290 290 291 290 289 291 288 285 282
22 349 59 35 31 19 22 6 346 336 334 329 326 326 323 319 319 323 329 325 326 340 340 340 329 312 300 297 295 293 292 290 288
119 82 58 55 43 20 4 353 341 342 342 332 328 320 313 312 323 328 336 341 339 343 339 338 333 334 342 338 324 315 312 301 297
96 73 56 39 25 11 0 358 356 351 346 338 331 325 320 326 333 347 344 342 342 339 342 344 341 333 329 331 325 323 320 318 319
88 70 50 36 19 10 4 359 355 360 353 338 331 330 336 352 341 344 336 339 337 340 339 337 332 328 329 330 326 321 315 312 309
77 60 43 35 29 18 12 6 2 0 1 348 335 328 315 322 338 333 334 331 333 331 337 334 329 326 324 321 322 323 321 317 313
63 49 41 31 24 21 21 18 7 350 6 354 320 335 318 343 325 331 326 325 329 329 327 321 318 320 320 323 320 320 319 315 309
53 46 36 30 22 22 21 16 16 360 353 3 34 347 319 325 327 321 319 322 324 318 319 320 314 318 316 319 318 317 312 312 314
43 38 32 25 19 18 17 8 10 359 352 357 348 335 314 309 317 337 310 316 313 314 314 314 311 314 314 315 320 314 313 312 308
35 36 32 23 16 13 8 2 359 358 348 341 332 327 323 309 268 303 313 305 309 310 308 312 307 310 312 313 313 311 310 308 305